Regional Weather Roundup
Issued by NWS

Home | Current Version | Previous Version | Graphics & Text | Print | Product List | Glossary On
Versions: 1 2 3 4 5 6 7 8 9 10 11 12 13 14 15 16 17 18 19 20 21 22 23 24 25 26 27
000
ASUS45 KTFX 061810
RWRMT
MONTANA REGIONAL WEATHER ROUNDUP
NATIONAL WEATHER SERVICE GREAT FALLS MT
1100 AM MST TUE DEC 06 2016

NOTE: "FAIR" INDICATES FEW OR NO CLOUDS BELOW 12000 FEET WITH NO
SIGNIFICANT WEATHER AND/OR OBSTRUCTIONS TO VISIBILITY.

MTZ001>007-043-061900-
WEST OF THE DIVIDE

CITY           SKY/WX    TMP DP  RH WIND       PRES   REMARKS
KALISPELL      SUNNY     15   4  61 N17G25    30.02S WCI  -1
MISSOULA       CLOUDY    19   8  62 SE17      29.98R WCI   4
BUTTE          CLOUDY    12   3  67 S12       29.85R WCI  -2
MULLAN PASS    CLOUDY     9   6  88 VRB5      29.76R
ANACONDA         N/A      9   3  78 N6        29.89S WCI  -1
DEER LODGE       N/A      9   3  78 N7        29.93F WCI  -3
EUREKA           N/A     12   7  79 CALM      30.09F
HAMILTON         N/A     18  12  79 CALM      29.93S
LIBBY            N/A     21  16  79 CALM      30.06R
PLAINS           N/A     19  12  74 CALM      30.02R
RONAN            N/A     22  15  74 CALM      30.00S
$$

MTZ008-052>055-061900-
SOUTHWEST MONTANA

CITY           SKY/WX    TMP DP  RH WIND       PRES   REMARKS
BOZEMAN        LGT SNOW  12   6  77 N7        29.96S WCI   1
DILLON         CLOUDY     8   0  69 CALM      29.87S
W YELLOWSTONE  CLOUDY     5   0  78 CALM      29.79F
ENNIS          CLOUDY    10   5  79 N3        29.91F
THREE FORKS      N/A     12 -30  13 NE8       29.97S VSB 1   WCI   0
TWIN BRIDGES     N/A     13   2  61 N14       29.89S WCI  -2
$$

MTZ009-010-012-014-046-048-049-054-061900-
EAST SLOPES AND CENTRAL MONTANA

CITY           SKY/WX    TMP DP  RH WIND       PRES   REMARKS
CUT BANK       CLOUDY    -3  -9  75 NW16      30.16S WCI -24
GREAT FALLS    CLOUDY     2  -6  69 NW7       30.16S WCI -11
MALMSTROM AFB  PTSUNNY    1  -4  77 NW8       30.19S WCI -13
HELENA         CLOUDY     8  -1  66 NW13      30.07R WCI  -8
CHOTEAU          N/A      0  -8  71 MISG      30.16S
CONRAD           N/A      0  -7  72 W10       30.17R WCI -16
$$

MTZ011-013-016-021-045-047-050-051-061900-
NORTH CENTRAL MONTANA

CITY           SKY/WX    TMP DP  RH WIND       PRES   REMARKS
HAVRE          PTSUNNY    1  -7  68 NW14      30.26R WCI -17
LEWISTOWN      CLOUDY    -1  -4  87 NW6       30.07S WCI -13
N BAR RANCH      N/A      9  -4  56 NW16G23   30.01F WCI  -9
CHINOOK          N/A      0  -9  65 W20       30.25S WCI -22
$$

MTZ017>020-022>027-061-062-061900-
NORTHEAST MONTANA

CITY           SKY/WX    TMP DP  RH WIND       PRES   REMARKS
GLASGOW        PTSUNNY    1  -8  66 NW28      30.16S WCI -24
JORDAN           N/A      5  -4  66 NW18G25   30.15S WCI -15
SIDNEY         CLOUDY     4  -4  69 W28       30.08F WCI -20
WOLF POINT     CLOUDY     4  -6  63 W22G28    30.16S WCI -18
PLENTYWOOD       N/A      1  -2  85 NW22G29   30.02R WCI -21
POPLAR           N/A      3  -6  66 W20       30.13F WCI -18
SCOBEY           N/A      1 -11  57 NW21      30.04S WCI -21
$$

MTZ028>42-056>058-061900-
SOUTHCENTRAL AND SOUTHEAST MONTANA

CITY           SKY/WX    TMP DP  RH WIND       PRES   REMARKS
BAKER          MIX PCPN   4  -3  73 NW20G32   30.03S WCI -17
BILLINGS       FLURRIES  11   5  77 SE5       30.06F
LIVINGSTON     CLOUDY     8   2  76 E8        29.96S WCI  -4
MILES CITY     SUNNY      7  -6  55 NW20      30.14S WCI -13
BIG TIMBER     PTSUNNY    9   1  72 E7        30.01F WCI  -3
EKALAKA          N/A      1  -7  69 W18       29.97R WCI -20
FORSYTH          N/A      7  -2  66 W8        30.16R WCI  -6
LAUREL           N/A     12   1  61 N1        30.03S
ROUNDUP          N/A     10  -1  61 E1        29.99F
$$

REGIONAL REPORTS...DAKOTAS

CITY           SKY/WX    TMP DP  RH WIND       PRES   REMARKS
WILLISTON      CLOUDY     6  -1  73 NW22      30.05R WCI -15
MINOT          SNOW      10   6  84 W33G45    29.83S VSB 1/4 WCI -13
DICKINSON      MIX PCPN   2  -5  72 NW31      29.94R VSB 1   WCI -24
WATFORD CITY   CLOUDY     5   0  78 W21G28    30.02S HAZE    WCI -16
BISMARCK       LGT SNOW   8   7  95 NW26G45   29.88R VSB 1   WCI -14
GRAND FORKS    LGT SNOW  26  22  84 N22G28    29.36R VSB 1   WCI  12
FARGO          LGT SNOW  21  17  84 W35G46    29.45R VSB 3/4 WCI   2
BUFFALO SD       N/A      7  -2  66 NW33      29.91F WCI -17
RAPID CITY     SUNNY     19   2  47 NW25      29.97F WCI   1
$$

REGIONAL REPORTS...WYOMING/IDAHO/WASHINGTON

CITY           SKY/WX    TMP DP  RH WIND       PRES   REMARKS
GILLETTE       SUNNY      6   1  80 W13       29.99S WCI -10
SHERIDAN       CLOUDY     9   3  77 NW10      30.04S WCI  -5
BUFFALO WY     LGT SNOW   8   2  76 CALM      29.96F
CODY           SUNNY     18   5  57 CALM      29.93F
YELLOWSTONE LA   N/A      6   0  76 CALM      29.74F
IDAHO FALLS    CLOUDY    15   6  67 NW12      29.85F WCI   2
SALMON         CLOUDY    10   7  85 CALM      29.93S
BOISE          LGT SNOW  25  21  85 SE6       29.92R FOG     WCI  18
SPOKANE        PTSUNNY   26  13  57 N15       29.99R WCI  14
$$

REGIONAL REPORTS...ALBERTA

CITY           SKY/WX    TMP DP  RH WIND       PRES   REMARKS
$$

REGIONAL REPORTS...SASKATCHEWAN

CITY           SKY/WX    TMP DP  RH WIND       PRES   REMARKS
$$




USA.gov is the U.S. government's official web portal to all federal, state and local government web resources and services.